AirNav   ATP
 
 719 users online  

F95 Calhoun County Airport
Blountstown, Florida, USA

GOING TO BLOUNTSTOWN?


FAA INFORMATION EFFECTIVE 26 APRIL 2018

Location

FAA Identifier: F95
Lat/Long: 30-29-13.9550N / 085-06-49.6650W
30-29.232583N / 085-06.827750W
30.4872097 / -85.1137958
(estimated)
Elevation: 122 ft. / 37 m (estimated)
Variation: 02W (1995)
From city: 5 miles NW of BLOUNTSTOWN, FL
Time zone: UTC -5 (UTC -6 during Standard Time)
Zip code: 32421

Airport Operations

Airport use: Open to the public
Activation date: 12/1996
Control tower: no
ARTCC: JACKSONVILLE CENTER
FSS: GAINESVILLE FLIGHT SERVICE STATION
NOTAMs facility: GNV (NOTAM-D service available)
Attendance: MON-FRI 0700-1500
Wind indicator: lighted
Segmented circle: yes
Lights: ACTVT MIRL RY 18/36 AND PAPI RYS 18 & 36 - CTAF.
Beacon: white (unlighted land airport)
Operates sunset to sunrise.

Airport Communications

CTAF: 122.9
WX AWOS-AV: 119.350 (850-674-1347)

Nearby radio navigation aids

VOR radial/distance  VOR name  Freq  Var
MAIr178/17.9MARIANNA VORTAC114.0000E
HLLr057/36.6HANDLE VORTAC114.3004W
SZWr262/38.5SEMINOLE VORTAC117.5002E

 
NDB name  Hdg/Dist  Freq  Var  ID
SOYYA168/23.832902WSMY ... -- -.--
LYNNE078/35.927804WPFN .--. ..-. -.

Airport Services

Fuel available: 100LL JET-A
Parking: hangars and tiedowns
Airframe service: MAJOR
Powerplant service: MAJOR
Bottled oxygen: NONE
Bulk oxygen: NONE

Runway Information

Runway 18/36

Dimensions: 3100 x 60 ft. / 945 x 18 m
Surface: asphalt, in good condition
Runway edge lights: medium intensity
RUNWAY 18  RUNWAY 36
Latitude: 30-29.488333N30-28.976833N
Longitude: 085-06.829333W085-06.826167W
Elevation: 120.9 ft.118.1 ft.
Gradient: 0.1% DOWN0.1% UP
Traffic pattern: leftleft
Runway heading: 182 magnetic, 180 true002 magnetic, 360 true
Markings: nonprecision, in good conditionnonprecision, in good condition
Visual slope indicator: 2-light PAPI on left (3.00 degrees glide path)2-light PAPI on left (3.00 degrees glide path)
Obstructions: 88 ft. tree, 1600 ft. from runway, 185 ft. left of centerline, 16:1 slope to clear
APPROACH SLOPE 20:1 TO THE DSPLCD THLD DUE TO 88 FT TREE 185 FT L OF CNTRLN AND 1600 FT FRM RY END.
15 ft. road, 425 ft. from runway, 125 ft. right of centerline, 15:1 slope to clear

Airport Ownership and Management from official FAA records

Ownership: Publicly-owned
Owner: CALHOUN COUNTY
20589 CENTRAL AVENUE EAST
BLOUNTSTOWN, FL 32424
Phone 850-674-4545
Manager: ROBERT FLECK
16701 AGRIPARK ROAD
ALTHA, FL 32421
Phone (850) 674-2499
CELL: 850-643-7582

Airport Operational Statistics

Aircraft based on the field: 11
Single engine airplanes: 11
    
Aircraft operations: avg 38/week *
50% transient general aviation
50% local general aviation
* for 12-month period ending 16 March 2017

Instrument Procedures

There are no published instrument procedures at F95.

Some nearby airports with instrument procedures:

KMAI - Marianna Municipal Airport (21 nm N)
2J9 - Quincy Municipal Airport (30 nm E)
1J0 - Tri-County Airport (33 nm NW)
17J - Donalsonville Municipal Airport (33 nm N)
KPAM - Tyndall Air Force Base (35 nm SW)
 
Loc | Ops | Rwys | IFR | FBO | Links
Com | Nav | Svcs | Stats | Notes

AirNav Hotels Sweepstakes
 
Area around F95 (Calhoun County Airport)
 
Road maps at: MapQuest Bing Google
 
Aerial photo
WARNING: Photo may not be current or correct
Aerial photo of F95 (Calhoun County Airport)
Photo by Brian Christopher
Photo taken 08-Aug-2010

Do you have a better or more recent aerial photo of Calhoun County Airport that you would like to share? If so, please send us your photo.

 
Sectional chart

 
Airport distance calculator
Flying to Calhoun County Airport? Find the distance to fly.

From to F95

Sunrise and sunset
Times for 24-May-2018
 Local
(UTC-5)
 Zulu
(UTC)
Morning civil twilight05:1510:15
Sunrise05:4210:42
Sunset19:3200:32
Evening civil twilight19:5900:59

Current date and time
Zulu (UTC)  24-May-2018 11:37:34
Local (UTC-5)  24-May-2018 06:37:34
 
METAR
KMAI 
21nm N 
241103Z AUTO 00000KT 1 3/4SM BR OVC002 22/21 A3008 RMK AO2 T02170211
K2J9 
30nm E 
231555Z AUTO 23004KT 10SM CLR 28/21 A3012 RMK AO2
K1J0 
33nm NW 
241120Z AUTO 00000KT 3/4SM BR OVC002 21/20 A3009 RMK AO2 T02060200 $
KPAM 
34nm SW 
241056Z 00000KT 7SM MIFG FEW016 22/22 A3007 RMK AO2A SLP186 T02180218
KECP 
36nm W 
241053Z 34003KT 10SM MIFG FEW007 21/20 A3006 RMK AO2 SLP190 TCU DISTNT W T02110200
KBGE 
38nm NE 
241115Z AUTO 00000KT 10SM SCT002 OVC009 22/22 A3009 RMK AO2
KTLH 
40nm E 
241118Z 00000KT 10SM BCFG FEW001 FEW030 SCT250 21/20 A3008 RMK AO2 T02060200
TAF
KPAM 
34nm SW 
241000Z 2410/2516 09006KT 9999 SCT016 QNH2998INS BECMG 2415/2416 15006KT 9999 VCTS FEW020 BKN030CB QNH3002INS BECMG 2417/2418 19006KT 9999 NSW FEW018 SCT025 BKN200 QNH2996INS BECMG 2506/2507 VRB06KT 6000 BR SCT012 BKN025 QNH2997INS BECMG 2513/2514 05006KT 9999 NSW FEW035 SCT050 QNH2995INS TX30/2418Z TN20/2411Z
KECP 
36nm W 
240943Z 2410/2506 VRB03KT P6SM SCT015 FM241200 14006KT P6SM -SHRA SCT020 BKN040 FM241600 20010KT 6SM -TSRA BKN030CB FM242300 20006KT P6SM BKN030
KTLH 
40nm E 
240940Z 2410/2506 00000KT 5SM BR BKN006 FM241300 25005KT P6SM BKN015 FM241500 25006KT P6SM VCSH BKN040 FM241700 18008KT 6SM -TSRA BKN040CB FM242300 20006KT P6SM BKN040
NOTAMs
Click for the latest NOTAMs
NOTAMs are issued by the DoD/FAA and will open in a separate window not controlled by AirNav.

 

 
 

FBO, Fuel Providers, and Aircraft Ground Support

  
 Business Name 
 
 Contact 
 
 Services / Description 
 
Fuel Prices
 
Comments
  
Calhoun County Airport 850-674-2499
no information available

If you are affiliated with Calhoun County Airport and would like to show here your services, contact info, web link, logo, and more, click here
100LL Jet A
SS $4.24 $3.75 
 Updated 14-May-2018
 
   1 read write
SS=Self service
Update Fuel Prices
 

Aviation Businesses, Services, and Facilities

  
 Business Name 
 
 Contact 
 
 Services / Description 
 
Distance
 
Comments
  
 Sunset Eagle Aviation, LLC
850-625-3572
850-691-2318
[web site]
[email]
We strive to bring affordability back to General Aviation!

More info about Sunset Eagle Aviation, LLC
on airport  
   write
 

Would you like to see your business listed on this page?

 If your business provides an interesting product or service to pilots, flight crews, aircraft, or users of the Calhoun County Airport, you should consider listing it here.  To start the listing process, click on the button below
 
Add a business
 

Other Pages about Calhoun County Airport

Update a link
 
Copyright © AirNav, LLC. All rights reserved. Privacy Policy  Contact